03:11
Airports
History
Links
Donate
Help keep this website running!
PayPal
Bitcoin
This page is community maintained. The information is intended for PC simulator navigation or reference.
Always use approved charts for navigation.
NA28
Keiser Farms Airstrip
Keiser Farms Airstrip (NA28)
Berthold, North Dakota, United States (58718)
4
Lat/Lng:48° 18' 34.05" N / 101° 43' 18.59" W
48.309458 / -101.72183
Elevation:2070'ft / 631mMSL
ID / ICAO:NA28
Runways:1
Longest:12-30
Grass 789m / 2,587ft
Nearby Weather02:56 GMT 2018-02-18
Nearby weather at KMIB, Minot Afb located 18.2 nautical miles from NA28
Altimeter: 29.88
Visibility: 10.0 statute miles
Wind: 5 knots (from 290°)
Temp: -13°c / 9°f
Humidity: 71.8%

METAR: KMIB 180256Z AUTO 29005KT 10SM CLR M13/M17 A2988 RMK AO2 SLP161 T11341166 58006 $

(Powered by phpweather)
Nearby VORs <50NM
Nearby NDBs
Runway 12 / 30
Dimensions:788.6 x 15.2m 2587' x 50'ft
Surface:Grass
Runway 12 [A]Runway 30 [B]
Heading:130°TH 310°TH
Lat:
Lng:
48° 18' 42.47"N
101° 43' 33.15"W
48° 18' 25.63"N
101° 43' 4.02"W
User Notes and Comments
48° 18' 34.05" N / 101° 43' 18.59" W
Distance To
Airport ID:
Nearby Airports
(R) Berg Strip 5.1 NM
4NA5 WSW 253°
(R) Skinningsrud 6.1 NM
6ND9 NNW 341°
4 Hanson Strip 11.1 NM
5NA7 N
(R) Behrens Airstrip 15.2 NM
NA30 E 99°
(R) Flying S Ranch 16.4 NM
ND43 ESE 117°
(R) Minot Afb 18.2 NM
KMIB ( WX ) ENE 66°
4 Jeune Strip 20.4 NM
2NA1 NE 40°
VFR Chart
Flight Planning at SkyVector.com